Location: Bucharest
(44.4268°N, 26.1025°E)
Time: 01:24:50
(UTC+03:00)

O/OREOS (USA 219) - Pass Details

Date: 02 July 2022
Orbit: 621 x 646 km, 72.0° (Epoch: 22 May)

Event Time Altitude Azimuth Distance (km) Brightness Sun altitude
Rises 00:49:58 0° 343° (NNW) 2,964 ? -22.2°
Reaches altitude 10° 00:52:25 10° 352° (N) 2,052 ? -22.2°
Maximum altitude 00:56:39 35° 58° (ENE) 1,048 ? -22.3°
Enters shadow 00:58:22 26° 100° (E) 1,266 ? -22.3°
